| time (UTC) | temp C | wind direction | speed KPH | gust KPH | rain 1hr cm | rain 24hr cm | rain mn cm | humidity % | barometer mb |
| 20260508104526 | 12 | 0 | 0.0 | 0.0 | 0.00 | 7.47 | 0.00 | 95 | 1015.1 |
| 20260508103038 | 12 | 0 | 0.0 | 0.0 | 0.00 | 7.47 | 0.00 | 95 | 1015.1 |
| 20260508101526 | 12 | 0 | 0.0 | 0.0 | 0.00 | 7.47 | 0.00 | 94 | 1015.0 |
| 20260508100032 | 12 | 0 | 0.0 | 0.0 | 0.00 | 7.47 | 0.00 | 94 | 1014.9 |
| 20260508094528 | 12 | 0 | 0.0 | 0.0 | 0.00 | 7.90 | 0.00 | 94 | 1014.8 |
| 20260508093036 | 12 | 0 | 0.0 | 0.0 | 0.00 | 7.90 | 0.00 | 93 | 1014.5 |
| 20260508091530 | 12 | 0 | 0.0 | 0.0 | 0.00 | 7.90 | 0.00 | 93 | 1014.6 |
| 20260508090036 | 13 | 0 | 0.0 | 0.0 | 0.00 | 7.90 | 0.00 | 93 | 1014.3 |
| 20260508084528 | 13 | 0 | 0.0 | 0.0 | 0.00 | 7.92 | 0.00 | 93 | 1014.4 |
| 20260508083030 | 13 | 0 | 0.0 | 0.0 | 0.00 | 7.92 | 0.00 | 93 | 1014.4 |
| 20260508081528 | 13 | 0 | 0.0 | 0.0 | 0.00 | 7.92 | 0.00 | 93 | 1014.2 |
| 20260508080029 | 13 | 0 | 0.0 | 0.0 | 0.00 | 7.92 | 0.00 | 92 | 1013.9 |
| 20260508074534 | 13 | 0 | 0.0 | 0.0 | 0.00 | 8.05 | 0.00 | 93 | 1014.0 |
| 20260508073030 | 13 | 0 | 0.0 | 0.0 | 0.00 | 8.05 | 0.00 | 92 | 1014.0 |
| 20260508071533 | 13 | 0 | 0.0 | 0.0 | 0.00 | 8.05 | 0.00 | 92 | 1014.4 |
| 20260508070030 | 13 | 0 | 0.0 | 0.0 | 0.00 | 8.05 | 0.00 | 92 | 1014.5 |
| 20260508064535 | 14 | 0 | 0.0 | 0.0 | 0.00 | 8.28 | 0.00 | 92 | 1014.6 |
| 20260508063030 | 14 | 0 | 0.0 | 0.0 | 0.00 | 8.28 | 0.00 | 93 | 1014.4 |
| 20260508061528 | 14 | 0 | 0.0 | 0.0 | 0.00 | 8.28 | 0.00 | 94 | 1014.5 |
| 20260508060033 | 14 | 0 | 0.0 | 0.0 | 0.00 | 8.28 | 0.00 | 93 | 1014.5 |
| 20260508054605 | 14 | 0 | 0.0 | 0.0 | 0.00 | 8.69 | 0.00 | 92 | 1014.8 |
| 20260508053043 | 15 | 0 | 0.0 | 0.0 | 0.00 | 8.69 | 0.00 | 92 | 1014.9 |
| 20260508051527 | 15 | 0 | 0.0 | 0.0 | 0.00 | 8.69 | 0.00 | 91 | 1014.7 |
| 20260508050030 | 15 | 0 | 0.0 | 0.0 | 0.00 | 8.69 | 0.00 | 90 | 1015.0 |
| 20260508044529 | 15 | 0 | 0.0 | 0.0 | 0.00 | 8.76 | 0.00 | 90 | 1014.8 |
| 20260508043035 | 15 | 0 | 0.0 | 0.0 | 0.00 | 8.76 | 0.00 | 89 | 1014.6 |
| 20260508041529 | 15 | 0 | 0.0 | 0.0 | 0.00 | 8.76 | 0.00 | 88 | 1014.6 |
| 20260508040032 | 16 | 0 | 0.0 | 0.0 | 0.00 | 8.76 | 0.00 | 87 | 1014.7 |
| 20260508034535 | 16 | 0 | 0.0 | 1.6 | 0.00 | 8.84 | 8.76 | 86 | 1014.6 |
| 20260508033033 | 16 | 0 | 0.0 | 0.0 | 0.00 | 8.84 | 8.76 | 86 | 1014.6 |
| 20260508031533 | 16 | 0 | 0.0 | 0.0 | 0.00 | 8.84 | 8.76 | 86 | 1014.4 |
| 20260508030030 | 16 | 0 | 0.0 | 0.0 | 0.00 | 8.84 | 8.76 | 84 | 1014.4 |
| 20260508024527 | 17 | 0 | 0.0 | 0.0 | 0.00 | 9.14 | 8.76 | 83 | 1014.0 |
| 20260508023027 | 17 | 0 | 0.0 | 0.0 | 0.00 | 9.14 | 8.76 | 82 | 1014.1 |
| 20260508021528 | 17 | 0 | 0.0 | 0.0 | 0.00 | 9.14 | 8.76 | 80 | 1014.2 |
| 20260508020031 | 18 | 0 | 0.0 | 1.6 | 0.00 | 9.14 | 8.76 | 79 | 1013.9 |
| 20260508014535 | 18 | 213 | 0.0 | 3.2 | 0.00 | 9.14 | 8.76 | 78 | 1013.7 |
| 20260508013028 | 18 | 0 | 0.0 | 8.0 | 0.00 | 9.14 | 8.76 | 79 | 1013.6 |
| 20260508011526 | 18 | 0 | 0.0 | 0.0 | 0.00 | 9.14 | 8.76 | 83 | 1013.5 |
| 20260508010044 | 18 | 0 | 0.0 | 1.6 | 0.00 | 9.14 | 8.76 | 82 | 1013.3 |
| 20260508004532 | 18 | 64 | 0.0 | 4.8 | 0.00 | 9.14 | 8.76 | 83 | 1013.1 |
| 20260508003027 | 19 | 0 | 0.0 | 4.8 | 0.00 | 9.14 | 8.76 | 82 | 1013.0 |
| 20260508001526 | 20 | 355 | 1.6 | 6.4 | 0.00 | 9.14 | 8.76 | 80 | 1012.8 |
| 20260508000027 | 20 | 143 | 1.6 | 8.0 | 0.00 | 9.14 | 8.76 | 80 | 1012.6 |
| 20260507234528 | 21 | 0 | 0.0 | 8.0 | 0.00 | 9.14 | 8.76 | 78 | 1012.5 |
| 20260507233030 | 21 | 355 | 1.6 | 8.0 | 0.00 | 9.14 | 8.76 | 77 | 1012.3 |
| 20260507231528 | 22 | 292 | 1.6 | 4.8 | 0.00 | 9.14 | 8.76 | 76 | 1012.1 |
| 20260507230038 | 22 | 34 | 1.6 | 9.7 | 0.00 | 9.14 | 8.76 | 74 | 1012.1 |
| 20260507224530 | 23 | 0 | 1.6 | 12.9 | 0.00 | 9.14 | 8.76 | 74 | 1011.8 |
| 20260507223032 | 22 | 207 | 1.6 | 11.3 | 0.00 | 9.14 | 8.76 | 76 | 1011.8 |
| 20260507221529 | 23 | 159 | 3.2 | 12.9 | 0.00 | 9.14 | 8.76 | 73 | 1011.6 |
| 20260507220029 | 23 | 168 | 1.6 | 9.7 | 0.00 | 9.14 | 8.76 | 74 | 1011.4 |
| 20260507214530 | 23 | 163 | 1.6 | 9.7 | 0.00 | 9.14 | 8.76 | 74 | 1011.6 |
| 20260507213030 | 23 | 112 | 6.4 | 17.7 | 0.00 | 9.14 | 8.76 | 73 | 1011.7 |
| 20260507211537 | 23 | 0 | 1.6 | 14.5 | 0.00 | 9.14 | 8.76 | 75 | 1011.5 |
| 20260507210027 | 23 | 309 | 6.4 | 16.1 | 0.00 | 9.14 | 8.76 | 74 | 1011.5 |
| 20260507204531 | 22 | 68 | 4.8 | 11.3 | 0.00 | 9.14 | 8.76 | 77 | 1011.3 |
| 20260507203033 | 22 | 101 | 3.2 | 12.9 | 0.00 | 9.14 | 8.76 | 78 | 1011.3 |
| 20260507201527 | 22 | 191 | 6.4 | 14.5 | 0.00 | 9.14 | 8.76 | 78 | 1011.3 |
| 20260507200028 | 22 | 109 | 4.8 | 25.7 | 0.00 | 9.14 | 8.76 | 77 | 1011.5 |
| 20260507194531 | 23 | 0 | 3.2 | 17.7 | 0.00 | 9.14 | 8.76 | 76 | 1011.6 |
| 20260507193033 | 23 | 248 | 6.4 | 19.3 | 0.00 | 9.14 | 8.76 | 76 | 1011.5 |
| 20260507191530 | 23 | 0 | 1.6 | 12.9 | 0.00 | 9.14 | 8.76 | 78 | 1011.2 |
| 20260507190028 | 23 | 172 | 3.2 | 11.3 | 0.00 | 9.14 | 8.76 | 78 | 1011.5 |
| 20260507184528 | 23 | 33 | 3.2 | 12.9 | 0.00 | 9.14 | 8.76 | 78 | 1011.5 |
| 20260507183041 | 23 | 194 | 3.2 | 14.5 | 0.00 | 9.14 | 8.76 | 78 | 1011.4 |
| 20260507181530 | 23 | 109 | 6.4 | 14.5 | 0.00 | 9.14 | 8.76 | 78 | 1011.5 |
| 20260507180032 | 22 | 272 | 3.2 | 11.3 | 0.00 | 9.14 | 8.76 | 82 | 1011.5 |
| 20260507174530 | 22 | 201 | 3.2 | 9.7 | 0.00 | 9.14 | 8.76 | 83 | 1011.7 |
| 20260507173030 | 21 | 185 | 3.2 | 11.3 | 0.00 | 9.14 | 8.76 | 87 | 1011.6 |
| 20260507171529 | 21 | 180 | 1.6 | 14.5 | 0.00 | 9.14 | 8.76 | 89 | 1011.9 |
| 20260507170028 | 20 | 0 | 1.6 | 6.4 | 0.00 | 9.14 | 8.76 | 93 | 1012.1 |
| 20260507164531 | 20 | 196 | 4.8 | 11.3 | 0.00 | 9.14 | 8.76 | 93 | 1011.9 |
| 20260507163027 | 19 | 198 | 1.6 | 9.7 | 0.30 | 9.14 | 8.76 | 96 | 1011.9 |
| 20260507161539 | 19 | 207 | 0.0 | 8.0 | 0.56 | 9.14 | 8.76 | 98 | 1012.0 |
| 20260507160040 | 19 | 180 | 0.0 | 4.8 | 0.61 | 9.14 | 8.76 | 98 | 1011.8 |
| 20260507154531 | 18 | 207 | 1.6 | 3.2 | 0.66 | 9.14 | 8.76 | 97 | 1011.7 |
| 20260507153031 | 18 | 0 | 0.0 | 4.8 | 0.33 | 8.79 | 8.41 | 97 | 1011.4 |
| 20260507151528 | 18 | 284 | 1.6 | 6.4 | 0.13 | 8.56 | 8.18 | 97 | 1011.6 |
| 20260507150030 | 18 | 29 | 0.0 | 3.2 | 0.10 | 8.53 | 8.15 | 97 | 1011.4 |
| 20260507144534 | 18 | 34 | 0.0 | 8.0 | 0.08 | 8.48 | 8.10 | 97 | 1011.6 |
| 20260507143029 | 18 | 9 | 3.2 | 8.0 | 0.10 | 8.46 | 8.08 | 97 | 1011.5 |
| 20260507141527 | 18 | 38 | 1.6 | 9.7 | 0.56 | 8.43 | 8.05 | 97 | 1011.4 |
| 20260507140029 | 19 | 43 | 3.2 | 16.1 | 1.40 | 8.43 | 8.05 | 97 | 1010.7 |
| 20260507134528 | 20 | 157 | 0.0 | 4.8 | 1.93 | 8.41 | 8.03 | 98 | 1010.8 |
| 20260507133028 | 20 | 188 | 1.6 | 8.0 | 2.67 | 8.36 | 7.98 | 98 | 1010.7 |
| 20260507131532 | 19 | 182 | 1.6 | 14.5 | 3.20 | 7.85 | 7.47 | 98 | 1010.7 |
| 20260507130028 | 19 | 220 | 4.8 | 14.5 | 2.95 | 6.96 | 6.58 | 98 | 1010.3 |
| 20260507124545 | 19 | 207 | 3.2 | 6.4 | 3.48 | 6.43 | 6.05 | 97 | 1009.7 |
| 20260507123030 | 19 | 183 | 4.8 | 12.9 | 3.84 | 5.59 | 5.21 | 97 | 1009.8 |
| 20260507121528 | 19 | 190 | 1.6 | 4.8 | 2.92 | 4.62 | 4.24 | 97 | 1010.0 |
| 20260507120028 | 19 | 207 | 3.2 | 9.7 | 2.24 | 3.94 | 3.56 | 97 | 1009.9 |
| 20260507114529 | 19 | 218 | 1.6 | 9.7 | 1.17 | 2.87 | 2.49 | 97 | 1009.8 |
| 20260507113027 | 18 | 202 | 3.2 | 8.0 | 0.03 | 1.73 | 1.32 | 97 | 1009.4 |
| 20260507111528 | 18 | 221 | 3.2 | 9.7 | 0.00 | 1.70 | 1.32 | 97 | 1009.3 |
| 20260507110031 | 18 | 178 | 1.6 | 6.4 | 0.03 | 1.70 | 1.32 | 97 | 1009.4 |